Location: Bastelaar
(51.0950°N, 3.8602°E)
Time: 17:47:18
(UTC+00:00)

Cosmos 2034 Rocket - Visible Passes

Search period start: 09 February 2026 00:00
Search period end: 19 February 2026 00:00
Orbit: 956 x 1001 km, 82.9° (Epoch: 9 February)

Date Brightness Start Highest point End Pass type
(mag) Time Alt. Az. Time Alt. Az. Time Alt. Az.
9 Feb 5.4 17:44:28 10° NNE 17:48:08 16° NE 17:50:52 12° E visible
9 Feb 3.8 19:28:36 10° N 19:34:47 73° E 19:35:39 63° SE visible
9 Feb 5.9 21:15:01 10° NNW 21:19:36 22° W 21:20:27 22° W visible
10 Feb 4.9 18:09:58 10° N 18:15:01 25° ENE 18:18:04 18° ESE visible
10 Feb 4.1 19:54:55 10° NNW 20:01:03 69° W 20:02:53 46° SSW visible
10 Feb 6.6 21:42:42 10° NW 21:45:19 13° WNW 21:47:42 10° W visible
11 Feb 4.3 18:35:52 10° N 18:41:40 40° ENE 18:45:36 19° SE visible
11 Feb 5.0 20:21:26 10° NNW 20:27:08 41° W 20:30:26 23° SW visible
12 Feb 3.9 19:01:59 10° N 19:08:08 67° ENE 19:13:44 13° SSE visible
12 Feb 5.9 20:48:14 10° NNW 20:53:04 25° W 20:57:54 10° SW visible
13 Feb 5.0 17:43:26 10° N 17:48:17 23° ENE 17:53:07 10° ESE visible
13 Feb 4.1 19:28:16 10° NNW 19:34:26 76° W 19:40:37 10° S visible
13 Feb 6.6 21:15:40 10° NW 21:18:49 14° WNW 21:21:57 10° WSW visible
14 Feb 4.4 18:09:17 10° N 18:14:59 37° ENE 18:20:41 10° SE visible
14 Feb 4.9 19:54:44 10° NNW 20:00:33 45° W 20:06:24 10° SSW visible
15 Feb 7.2 06:06:15 10° ENE 06:06:58 10° ENE 06:07:41 10° ENE visible
15 Feb 4.0 18:35:22 10° N 18:41:29 61° ENE 18:47:37 10° SSE visible
15 Feb 5.8 20:21:28 10° NNW 20:26:30 27° W 20:31:34 10° SW visible
16 Feb 4.0 19:01:37 10° NNW 19:07:49 82° W 19:14:02 10° S visible
16 Feb 6.6 20:48:43 10° NW 20:52:18 16° WNW 20:55:52 10° WSW visible
17 Feb 4.6 17:42:42 10° N 17:48:17 34° ENE 17:53:54 10° SE visible
17 Feb 4.8 19:28:03 10° NNW 19:33:58 50° W 19:39:55 10° SSW visible
18 Feb 4.1 18:08:45 10° N 18:14:50 56° ENE 18:20:56 10° SSE visible
18 Feb 5.8 19:54:43 10° NNW 19:59:57 30° W 20:05:13 10° SW visible
